User: anonymous
Location: Plum
(40.5000°N, 79.7500°W)
Time: 16:09:18
(UTC-04:00)
Language:

MOZ.5/SAFIR/RUBIN 5/SL-8 - Orbit

View from above orbital plane
View from above orbital plane
View from above satellite
View from above satellite

Ground track
Ground track

The orbit data is extracted from the following two-line orbital elements,

1 28898U 05043G   14264.15737833  .00000353  00000-0  83126-4 0  9312
2 28898 097.8367 088.4322 0021452 094.6527 040.8281 14.59543410473925
Epoch (UTC): 21 September 2014 03:46:37
Eccentricity: 0.0021452
inclination: 97.8367°
perigee height: 679 km
apogee height: 710 km
right ascension of ascending node: 88.4322°
argument of perigee: 94.6527°
revolutions per day: 14.59543410
mean anomaly at epoch: 40.8281°
orbit number at epoch: 47392

The dashed part of the orbit path shows where the satellite is in the earth's shadow,  

DLR